Location: Bothwell
(42.3833°S, 147.0000°E)
Time: 07:15:48
(UTC+11:00)

Oscar 19 - Pass Details

Date: 01 December 2023
Orbit: 771 x 789 km, 98.9° (Epoch: 26 February)

Event Time Altitude Azimuth Distance (km) Brightness Sun altitude
Rises 03:51:30 0° 49° (NE) 3,285 13.9 -14.8°
Reaches altitude 10° 03:54:09 10° 62° (ENE) 2,365 13.3 -14.5°
Maximum altitude 03:58:23 26° 116° (ESE) 1,546 13.0 -14.0°
Drops below altitude 10° 04:02:39 10° 170° (S) 2,388 14.1 -13.4°
Sets 04:05:20 0° 182° (S) 3,324 14.6 -13.1°
